Miriam Vale Town Of 1770, Queensland

5:45 PM AEST on February 09, 2016 (GMT +1000)
Gladstone | | Change Station
CLOSE
Current Station
Airport
Location: Gladstone Airport,
Elevation: 62 ft
Nearby Weather Stations

Elev 62 ft 23.87 °S, 151.22 °E | Updated 45 minutes ago

Scattered Clouds
Scattered Clouds
84 °F
Feels Like 87 °F
N
20
Wind Variable Wind from East

Today
High -- | Low -- °F
--% Chance of Precip.
Yesterday
High -- | Low -- °F
Precip. -- in
Pressure 29.83 in
Visibility 6.2 miles
Clouds Scattered Clouds 7300 ft
Heat Index 87 °F
Dew Point 66 °F
Humidity 55%
Rainfall 0.00 in
Snow Depth Not available.
5:35 AM 6:37 PM
New Moon, 1% visible
METAR YGLA 090700Z AUTO 10017KT 9999 // SCT073 29/19 Q1010
Pressure 29.83 in
Visibility 6.2 miles
Clouds Scattered Clouds 7300 ft
Heat Index 87 °F
Dew Point 66 °F
Humidity 55%
Rainfall 0.00 in
Snow Depth Not available.
5:35 AM 6:37 PM
New Moon, 1% visible
METAR YGLA 090700Z AUTO 10017KT 9999 // SCT073 29/19 Q1010

10-Day Weather Forecast

Almanac

Astronomy

Feb. 09, 2016 Rise Set
Actual Time
Civil Twilight
Nautical Twilight
Astronomical Twilight
Moon
Length of Visible Light
Length of Day
Tomorrow will be .
, % of the Moon is Illuminated

Today's Extremes

Country Highs Country Lows

Community

WunderPhotos

Upload Photos

1,891,571 photos uploaded!

WunderBlog® & News

Nearby

Air Quality

  Air Quality AQ Index Pollutant
Not available.

Snow Depth

Station Depth Elevation

Earthquake Activity

City Distance Mag. Time & Date
Minimum magnitude displayed is 2.5.

Coastal Water Temperatures

Place Temperature

Stations

Nearby Weather Stations

Station Location Temp. Windchill Dew Point Humidity Wind Precip. Elev Updated Type